Flag for U.S.A. Weather past 2 weeks in Tampa, Florida, U.S.A.

Now
78 °F

Scattered clouds.


Feels Like: 81 °F
Forecast: 74 / 89 °F
Wind: No wind

Location: Tampa International Airport

Current Time: Jul 22, 2014 at 10:04:57 AM

Latest Report: Jul 22, 2014 at 8:53 AM


Visibility: 10 mi

Pressure: 30.07 "Hg

Humidity: 84%

Dew point: 73 °F

Location of TampaLocation

Historic Weather in Tampa — Graph

°F

Tampa temperature yesterday

Maximum temperature yesterday: 91 °F (at 4:53 PM)
Minimum temperature yesterday: 76 °F (at 7:53 PM)
Average temperature yesterday: 82 °F

Past Weeks' High & Low Weather Summary

 TemperatureHumidityPressure
High91 °F (Jul 20, 4:53 PM)96% (Jul 17, 1:53 AM)30.16 "Hg (Jul 17, 1:53 AM)
Low73 °F (Jul 8, 9:53 PM)45% (Jul 18, 5:53 PM)29.92 "Hg (Jul 16, 5:53 AM)
Average81 °F74%30.06 "Hg
* Reported Jul 7 8:53 AM — Jul 22 8:53 AM, Tampa, Weather by CustomWeather, © 2014

Note: Actual official high and low records may vary slightly from our data, if they occured in-between our weather recording intervals... More about our weather records

Advertising

Tampa weather history for previous 24 hours

 ConditionsComfort  
Time TempWeatherWind HumidityBarometerVisibility
8:53 AM
Jul 22
78 °FScattered clouds.No wind84%30.07 "Hg10 mi
7:53 AM76 °FPassing clouds.3 mph88%30.06 "Hg10 mi
6:53 AM75 °FPassing clouds.No wind88%30.04 "Hg10 mi
5:53 AM75 °FPassing clouds.No wind88%30.02 "Hg10 mi
4:53 AM75 °FPassing clouds.3 mph88%30.01 "Hg10 mi
3:53 AM75 °FPassing clouds.5 mph88%30.01 "Hg10 mi
2:53 AM75 °FPassing clouds.5 mph88%30.02 "Hg10 mi
1:53 AM76 °FPassing clouds.3 mph85%30.03 "Hg10 mi
12:53 AM75 °FPassing clouds.6 mph88%30.04 "Hg10 mi
11:53 PM
Jul 21
76 °FPartly cloudy.6 mph88%30.07 "Hg10 mi
10:53 PM77 °FPartly cloudy.No wind85%30.07 "Hg10 mi
9:53 PM76 °FPartly cloudy.No wind88%30.06 "Hg10 mi
8:53 PM77 °FBroken clouds.5 mph85%30.06 "Hg10 mi
7:53 PM76 °FThunderstorms. Broken clouds.9 mph91%30.06 "Hg7 mi
6:53 PM83 °FThunderstorms. Mostly cloudy.6 mph59%30.03 "Hg10 mi
5:53 PM85 °FScattered clouds.3 mph57%30.02 "Hg10 mi
4:53 PM91 °FThundershowers. Broken clouds.12 mph56%30.00 "Hg10 mi
3:53 PM90 °FBroken clouds.9 mph59%30.01 "Hg10 mi
2:53 PM88 °FBroken clouds.6 mph57%30.02 "Hg10 mi
1:53 PM90 °FBroken clouds.3 mph54%30.03 "Hg10 mi
12:53 PM88 °FBroken clouds.3 mph59%30.06 "Hg10 mi
11:53 AM86 °FPartly sunny.3 mph63%30.07 "Hg10 mi
10:53 AM85 °FPartly sunny.5 mph70%30.08 "Hg10 mi
Weather by CustomWeather, © 2014

See weather overviewHow to use our weather pages